, NM

(GMT )
Holloman AFB

Weather History for KHMN - August, 2013

Change the Weather History Date:

Friday, August 23, 2013

  Actual Average Record
Temperature  
Mean Temperature 78 °F -  
Max Temperature 90 °F 90 °F 99 °F (2011)
Min Temperature 67 °F 63 °F 60 °F (2001)
Cooling Degree Days 13    
Growing Degree Days 28 (Base 50)    
Moisture  
Dew Point 54 °F    
Average Humidity 45    
Maximum Humidity 65    
Minimum Humidity 26    
Precipitation  
Precipitation 0.33 in - - ()
Sea Level Pressure  
Sea Level Pressure 29.94 in    
Wind  
Wind Speed 6 mph (ESE)    
Max Wind Speed 10 mph    
Max Gust Speed 18 mph    
Visibility 10 miles    
Events Rain , Thunderstorm    
Averages and records for this station are not official NWS values.
T = Trace of Precipitation, MM = Missing Value Source: NWS Daily Summary

Daily Weather History Graph

Daily Weather History Graph

Search for Another Location

Airport or City:

Trip Planner

Search our weather history database for the weather conditions in past years. The results will help you decide how hot, cold, wet, or windy it might be!

Date:

Astronomy

Aug. 23, 2013 Rise Set
Actual Time 6:33 AM MDT 7:40 PM MDT
Civil Twilight 6:07 AM MDT 8:05 PM MDT
Nautical Twilight 5:37 AM MDT 8:35 PM MDT
Astronomical Twilight 5:05 AM MDT 9:07 PM MDT
Moon 9:14 PM MDT (8/23) 9:18 AM MDT (8/23)
Length of Visible Light 13h 57m
Length of Day
13h 06m
Waning Gibbous, 91% of the Moon is Illuminated
Aug 23
Waning Gibbous
Aug 28
Last Quarter
Sep 5
New
Sep 12
First Quarter
Sep 19
Full

Hourly Weather History & Observations

Time (MDT) Temp. Heat Index Dew Point Humidity Pressure Visibility Wind Dir Wind Speed Gust Speed Precip Events Conditions
12:56 AM 77.9 °F - 47.3 °F 34% 29.86 in 10.0 mi South 9.2 mph - N/A   Clear
1:56 AM 74.8 °F - 50.2 °F 42% 29.88 in 10.0 mi South 5.8 mph - N/A   Partly Cloudy
2:55 AM 74.7 °F - 50.5 °F 43% 29.86 in 10.0 mi South 5.8 mph - N/A   Partly Cloudy
2:56 AM 74.7 °F - 50.5 °F 43% 29.86 in 10.0 mi South 5.8 mph - N/A   Partly Cloudy
3:56 AM 73.8 °F - 50.5 °F 44% 29.87 in 10.0 mi SSE 4.6 mph - N/A   Clear
4:56 AM 71.6 °F - 51.1 °F 48% 29.87 in 10.0 mi SSE 2.3 mph - N/A   Clear
5:56 AM 67.5 °F - 46.0 °F 46% 29.89 in 10.0 mi NNW 5.8 mph - N/A   Clear
6:56 AM 68.0 °F - 48.2 °F 49% 29.91 in 10.0 mi North 2.3 mph - N/A   Partly Cloudy
7:56 AM 72.0 °F - 48.6 °F 43% 29.94 in 10.0 mi North 3.5 mph - N/A   Partly Cloudy
8:56 AM 75.7 °F - 52.2 °F 44% 29.94 in 10.0 mi NNW 2.3 mph - N/A   Partly Cloudy
9:56 AM 79.0 °F - 52.5 °F 40% 29.94 in 10.0 mi North 1.2 mph - N/A   Mostly Cloudy
10:56 AM 84.4 °F - 51.3 °F 32% 29.94 in 10.0 mi SSW 3.5 mph - N/A   Mostly Cloudy
11:56 AM 88.3 °F - 50.5 °F 27% 29.89 in 10.0 mi WSW 5.8 mph - N/A   Mostly Cloudy
12:55 PM 89.6 °F - 50.0 °F 26% 29.88 in 10.0 mi WNW 3.5 mph 12.7 mph N/A   Mostly Cloudy
1:36 PM 87.8 °F - 50.0 °F 27% 30.11 in 12.0 mi SE 9.2 mph - N/A Rain Light Rain Showers
1:37 PM 80.6 °F 80.8 °F 57.2 °F 45% 30.10 in 6.0 mi ESE 9.2 mph - N/A Rain Light Rain Showers
1:41 PM 75.2 °F - 62.6 °F 65% 30.10 in 5.0 mi East 8.1 mph - N/A Rain Heavy Rain Showers
1:42 PM 75.2 °F - 62.6 °F 65% 30.10 in 4.0 mi East 9.2 mph - N/A Rain , Thunderstorm Heavy Thunderstorms and Rain
1:56 PM 77.7 °F - 60.8 °F 56% 29.90 in 10.0 mi ENE 10.4 mph - 0.31 in Rain , Thunderstorm Heavy Thunderstorms and Rain
1:57 PM 77.0 °F - 60.8 °F 57% 30.09 in 12.0 mi ENE 10.4 mph - N/A Rain Heavy Rain Showers
2:05 PM 78.8 °F - 59.0 °F 51% 30.09 in 12.0 mi East 10.4 mph - N/A   Mostly Cloudy
2:06 PM 78.8 °F - 60.8 °F 54% 30.09 in 12.0 mi East 10.4 mph - N/A   Mostly Cloudy
2:07 PM 78.8 °F - 60.8 °F 54% 30.09 in 12.0 mi East 10.4 mph - N/A Rain Light Rain Showers
2:24 PM 78.8 °F - 55.4 °F 44% 30.09 in 12.0 mi ENE 10.4 mph 18.4 mph N/A Rain Light Rain Showers
2:56 PM 79.5 °F - 55.8 °F 44% 29.88 in 12.0 mi SE 4.6 mph - 0.02 in Rain Light Rain Showers
3:50 PM 80.6 °F 80.5 °F 55.4 °F 42% 30.04 in 12.0 mi NE 3.5 mph - N/A   Mostly Cloudy
3:56 PM 81.7 °F 81.2 °F 55.2 °F 40% 29.84 in 12.0 mi ENE 2.3 mph - 0.00 in   Mostly Cloudy
4:56 PM 83.8 °F - 51.8 °F 33% 29.83 in 12.0 mi East 2.3 mph - N/A   Mostly Cloudy
5:56 PM 83.3 °F 82.3 °F 55.2 °F 38% 29.83 in 12.0 mi North 4.6 mph - N/A   Mostly Cloudy
6:56 PM 81.1 °F 80.6 °F 53.2 °F 38% 29.84 in 12.0 mi SSE 9.2 mph 17.3 mph N/A   Mostly Cloudy
7:56 PM 76.1 °F - 57.4 °F 52% 29.85 in 12.0 mi South 8.1 mph - N/A   Mostly Cloudy
8:56 PM 73.4 °F - 59.0 °F 61% 29.86 in 11.0 mi SSW 1.2 mph - N/A   Scattered Clouds
9:56 PM 74.1 °F - 55.4 °F 52% 29.89 in 12.0 mi SSW 3.5 mph - N/A   Clear
10:56 PM 73.0 °F - 54.7 °F 52% 29.89 in 12.0 mi SSE 4.6 mph - N/A   Scattered Clouds
11:56 PM 71.8 °F - 54.7 °F 55% 29.90 in 12.0 mi South 8.1 mph - N/A   Clear